Location: �quirre
(50.4736°N, 2.2351°E)
Time: 10:44:20
(UTC+00:00)

AQUA - Pass Details

Date: 07 August 2020
Orbit: 700 x 704 km, 98.2° (Epoch: 20 September)

Event Time Altitude Azimuth Distance (km) Brightness Sun altitude
Rises 02:14:46 0° 12° (NNE) 3,106 8.4 -16.7°
Reaches altitude 10° 02:17:03 10° 10° (N) 2,183 7.4 -16.5°
Maximum altitude 02:21:48 68° 288° (WNW) 759 3.9 -16.0°
Enters shadow 02:24:23 27° 212° (SSW) 1,347 4.7 -15.8°
